{"data":{"norad_id":55996,"intl_designator":"2023-042L","name":"STARLINK-5903","alt_names":[],"object_type":"PAYLOAD","status":"ACTIVE","operator":null,"country":"US","launch_date":"2023-03-24","launch_site_code":"AFETR","launch_vehicle":null,"mission":null,"orbit_class":"UNKNOWN","rcs_meters":null,"size_class":null,"mass_kg":null,"dimensions":null,"purposes":["comms"],"wikipedia_slug":null,"has_3d_model":false,"image_url":null,"decayed_at":null,"tle_current":{"epoch":"2026-09-20T16:20:02.586336Z","epoch_age_seconds":90604,"freshness":"FRESH","line1":"1 55996U 23042L   26263.68058549  .00000041  00000+0  11005-4 0  9994","line2":"2 55996  43.0034  38.1601 0001248 269.6440  90.4269 15.27575811192683","mean_motion":15.27575811,"eccentricity":0.0001248,"inclination_deg":43.0034,"raan_deg":38.1601,"arg_perigee_deg":269.644,"mean_anomaly_deg":90.4269,"bstar":1.1005e-5,"rev_number":19268,"period_min":94.267007216966,"perigee_km":482.2053618511,"apogee_km":483.91791703151,"semimajor_km":6861.1986394413,"source":"CELESTRAK","updated_at":"2026-09-21T09:00:33.351061Z"}}}